Wetterdaten: Mittwoch, 27.01.2016
Datum Zeit Auen-Temp. Temp gefhlt Luftfeuchte Luftdruck Regen Wind Richtung Richtung Taupunkt Windben
27.01.2016 00:00 1,4 C 1,0 C 76 % 1031,2 hPa 0,0 mm 0,0 km/h (0 Bft) O-SO 112 -2,4 C 0,0 km/h (0 Bft)
27.01.2016 00:05 1,1 C 0,8 C 76 % 1031,2 hPa 0,0 mm 0,0 km/h (0 Bft) O-SO 112 -2,6 C 0,0 km/h (0 Bft)
27.01.2016 00:10 1,2 C 0,8 C 76 % 1031,2 hPa 0,0 mm 0,0 km/h (0 Bft) O 90 -2,5 C 0,0 km/h (0 Bft)
27.01.2016 00:15 1,3 C 0,9 C 77 % 1031,2 hPa 0,0 mm 0,0 km/h (0 Bft) O-SO 112 -2,3 C 0,0 km/h (0 Bft)
27.01.2016 00:20 1,0 C 0,7 C 77 % 1031,2 hPa 0,0 mm 0,0 km/h (0 Bft) O-NO 67 -2,6 C 0,0 km/h (0 Bft)
27.01.2016 00:25 0,9 C 0,6 C 77 % 1030,5 hPa 0,0 mm 0,0 km/h (0 Bft) SO 135 -2,7 C 0,0 km/h (0 Bft)
27.01.2016 00:30 1,0 C 0,6 C 78 % 1030,5 hPa 0,0 mm 0,0 km/h (0 Bft) NO 45 -2,4 C 0,0 km/h (0 Bft)
27.01.2016 00:35 0,9 C 0,6 C 78 % 1030,5 hPa 0,0 mm 0,0 km/h (0 Bft) O 90 -2,5 C 0,0 km/h (0 Bft)
27.01.2016 00:40 1,3 C 0,8 C 79 % 1030,5 hPa 0,0 mm 0,0 km/h (0 Bft) O-SO 112 -1,9 C 0,0 km/h (0 Bft)
27.01.2016 00:45 0,9 C 0,5 C 79 % 1030,8 hPa 0,0 mm 0,0 km/h (0 Bft) O-NO 67 -2,3 C 0,0 km/h (0 Bft)
27.01.2016 00:50 0,8 C 0,4 C 79 % 1030,8 hPa 0,0 mm 0,0 km/h (0 Bft) O-SO 112 -2,4 C 0,0 km/h (0 Bft)
27.01.2016 00:55 0,8 C 0,4 C 79 % 1030,8 hPa 0,0 mm 0,0 km/h (0 Bft) N 360 -2,4 C 0,0 km/h (0 Bft)
27.01.2016 01:00 0,9 C 0,5 C 79 % 1030,8 hPa 0,0 mm 0,0 km/h (0 Bft) O-NO 67 -2,3 C 0,0 km/h (0 Bft)
27.01.2016 01:05 0,6 C 0,3 C 79 % 1030,7 hPa 0,0 mm 0,0 km/h (0 Bft) O 90 -2,6 C 0,0 km/h (0 Bft)
27.01.2016 01:10 0,6 C 0,2 C 79 % 1030,7 hPa 0,0 mm 0,0 km/h (0 Bft) NO 45 -2,6 C 0,0 km/h (0 Bft)
27.01.2016 01:15 0,4 C 0,0 C 80 % 1030,7 hPa 0,0 mm 0,0 km/h (0 Bft) O-SO 112 -2,6 C 0,0 km/h (0 Bft)
27.01.2016 01:20 0,3 C 0,0 C 80 % 1030,7 hPa 0,0 mm 0,0 km/h (0 Bft) NO 45 -2,7 C 0,0 km/h (0 Bft)
27.01.2016 01:25 0,1 C -0,1 C 80 % 1030,5 hPa 0,0 mm 0,0 km/h (0 Bft) N-NO 22 -2,9 C 0,0 km/h (0 Bft)
27.01.2016 01:30 -0,1 C -0,3 C 79 % 1030,5 hPa 0,0 mm 0,0 km/h (0 Bft) O 90 -3,3 C 0,0 km/h (0 Bft)
27.01.2016 01:35 0,3 C -0,1 C 81 % 1030,5 hPa 0,0 mm 0,0 km/h (0 Bft) O-NO 67 -2,6 C 0,0 km/h (0 Bft)
27.01.2016 01:40 -0,1 C -0,3 C 80 % 1030,5 hPa 0,0 mm 0,0 km/h (0 Bft) O 90 -3,1 C 0,0 km/h (0 Bft)
27.01.2016 01:45 0,0 C -0,3 C 80 % 1030,3 hPa 0,0 mm 0,0 km/h (0 Bft) O-NO 67 -3,0 C 0,0 km/h (0 Bft)
27.01.2016 01:50 -0,3 C -0,6 C 80 % 1030,3 hPa 0,0 mm 0,0 km/h (0 Bft) O-NO 67 -3,3 C 0,0 km/h (0 Bft)
27.01.2016 01:55 -0,1 C -0,5 C 81 % 1030,3 hPa 0,0 mm 0,0 km/h (0 Bft) O-NO 67 -3,0 C 0,0 km/h (0 Bft)
27.01.2016 02:00 0,2 C -0,2 C 82 % 1030,3 hPa 0,0 mm 0,0 km/h (0 Bft) O-NO 67 -2,5 C 0,0 km/h (0 Bft)
27.01.2016 02:05 -0,1 C -0,4 C 82 % 1030,2 hPa 0,0 mm 0,0 km/h (0 Bft) NO 45 -2,8 C 0,0 km/h (0 Bft)
27.01.2016 02:10 0,1 C -0,3 C 82 % 1030,2 hPa 0,0 mm 0,0 km/h (0 Bft) O-SO 112 -2,6 C 0,0 km/h (0 Bft)
27.01.2016 02:15 -0,1 C -0,4 C 82 % 1030,2 hPa 0,0 mm 0,0 km/h (0 Bft) O-NO 67 -2,8 C 0,0 km/h (0 Bft)
27.01.2016 02:20 -0,2 C -0,5 C 82 % 1030,2 hPa 0,0 mm 0,0 km/h (0 Bft) O 90 -2,9 C 0,0 km/h (0 Bft)
27.01.2016 02:25 -0,4 C -0,7 C 82 % 1030,2 hPa 0,0 mm 0,0 km/h (0 Bft) NO 45 -3,1 C 0,0 km/h (0 Bft)
27.01.2016 02:30 -0,2 C -0,6 C 82 % 1030,2 hPa 0,0 mm 0,0 km/h (0 Bft) O 90 -2,9 C 0,0 km/h (0 Bft)
27.01.2016 02:35 -0,2 C -0,6 C 83 % 1030,2 hPa 0,0 mm 0,0 km/h (0 Bft) O-SO 112 -2,7 C 0,0 km/h (0 Bft)
27.01.2016 02:40 -0,3 C -0,6 C 83 % 1030,2 hPa 0,0 mm 0,0 km/h (0 Bft) NO 45 -2,8 C 0,0 km/h (0 Bft)
27.01.2016 02:45 -0,1 C -0,5 C 83 % 1030,0 hPa 0,0 mm 0,0 km/h (0 Bft) O-NO 67 -2,6 C 0,0 km/h (0 Bft)
27.01.2016 02:50 0,0 C -0,4 C 84 % 1030,0 hPa 0,0 mm 0,0 km/h (0 Bft) NO 45 -2,4 C 0,0 km/h (0 Bft)
27.01.2016 02:55 -0,1 C -0,5 C 84 % 1030,0 hPa 0,0 mm 0,0 km/h (0 Bft) NW 315 -2,5 C 0,0 km/h (0 Bft)
27.01.2016 03:00 -0,1 C -0,4 C 84 % 1030,0 hPa 0,0 mm 0,0 km/h (0 Bft) O-NO 67 -2,5 C 0,0 km/h (0 Bft)
27.01.2016 03:05 0,3 C -0,1 C 85 % 1030,0 hPa 0,0 mm 0,0 km/h (0 Bft) NW 315 -1,9 C 2,8 km/h (1 Bft)
27.01.2016 03:10 0,0 C -0,3 C 85 % 1030,0 hPa 0,0 mm 0,3 km/h (0 Bft) NO 45 -2,2 C 0,0 km/h (0 Bft)
27.01.2016 03:15 0,0 C -0,3 C 84 % 1030,0 hPa 0,0 mm 0,3 km/h (0 Bft) O-NO 67 -2,4 C 3,1 km/h (1 Bft)
27.01.2016 03:20 0,6 C 0,1 C 86 % 1030,0 hPa 0,0 mm 0,3 km/h (0 Bft) S 180 -1,5 C 0,0 km/h (0 Bft)
27.01.2016 03:25 0,4 C 0,0 C 86 % 1030,0 hPa 0,0 mm 0,3 km/h (0 Bft) O-SO 112 -1,7 C 3,6 km/h (1 Bft)
27.01.2016 03:30 0,2 C -0,1 C 85 % 1030,0 hPa 0,0 mm 0,0 km/h (0 Bft) O-SO 112 -2,0 C 0,0 km/h (0 Bft)
27.01.2016 03:35 0,0 C -0,3 C 85 % 1030,0 hPa 0,0 mm 0,0 km/h (0 Bft) O-SO 112 -2,2 C 0,0 km/h (0 Bft)
27.01.2016 03:40 0,5 C 0,0 C 86 % 1030,0 hPa 0,0 mm 0,0 km/h (0 Bft) SO 135 -1,6 C 0,0 km/h (0 Bft)
27.01.2016 03:45 0,0 C -0,3 C 85 % 1030,0 hPa 0,0 mm 0,0 km/h (0 Bft) S-SO 157 -2,2 C 0,0 km/h (0 Bft)
27.01.2016 03:50 -0,3 C -0,5 C 85 % 1030,0 hPa 0,0 mm 0,0 km/h (0 Bft) O-NO 67 -2,5 C 0,0 km/h (0 Bft)
27.01.2016 03:55 0,0 C -0,3 C 86 % 1030,0 hPa 0,0 mm 0,0 km/h (0 Bft) O-SO 112 -2,1 C 0,0 km/h (0 Bft)
27.01.2016 04:00 0,6 C 0,4 C 79 % 1030,0 hPa 0,0 mm 0,8 km/h (0 Bft) S-SW 202 -2,6 C 6,0 km/h (2 Bft)
27.01.2016 04:05 0,4 C 0,1 C 86 % 1029,9 hPa 0,0 mm 0,8 km/h (0 Bft) O-SO 112 -1,7 C 0,0 km/h (0 Bft)
27.01.2016 04:10 0,4 C 0,2 C 86 % 1029,9 hPa 0,0 mm 0,5 km/h (0 Bft) O 90 -1,7 C 0,0 km/h (0 Bft)
27.01.2016 04:13 0,4 C 0,2 C 86 % 1029,9 hPa 0,0 mm 0,5 km/h (0 Bft) O 90 -1,7 C 0,0 km/h (0 Bft)
27.01.2016 04:15 0,9 C 0,8 C 79 % 1029,9 hPa 0,0 mm 2,3 km/h (1 Bft) W 270 -2,3 C 12,2 km/h (2 Bft)
27.01.2016 04:20 2,4 C 2,0 C 86 % 1029,9 hPa 0,0 mm 5,2 km/h (1 Bft) W 270 0,3 C 0,0 km/h (0 Bft)
27.01.2016 04:25 1,4 C 2,0 C 84 % 1029,8 hPa 0,0 mm 3,9 km/h (1 Bft) N-NO 22 -1,0 C 16,8 km/h (3 Bft)
27.01.2016 04:30 1,2 C 1,4 C 83 % 1029,8 hPa 0,0 mm 0,8 km/h (0 Bft) N-NO 22 -1,4 C 2,6 km/h (1 Bft)
27.01.2016 04:35 1,2 C 1,2 C 83 % 1029,8 hPa 0,0 mm 0,8 km/h (0 Bft) O-SO 112 -1,4 C 0,0 km/h (0 Bft)
27.01.2016 04:40 0,5 C 0,5 C 82 % 1029,8 hPa 0,0 mm 0,0 km/h (0 Bft) N-NO 22 -2,2 C 0,0 km/h (0 Bft)
27.01.2016 04:45 0,9 C 0,7 C 83 % 1029,8 hPa 0,0 mm 0,0 km/h (0 Bft) S-SO 157 -1,7 C 0,0 km/h (0 Bft)
27.01.2016 04:50 0,7 C 0,5 C 83 % 1029,8 hPa 0,0 mm 0,8 km/h (0 Bft) N-NW 337 -1,8 C 6,5 km/h (2 Bft)
27.01.2016 04:55 0,5 C 0,3 C 83 % 1029,8 hPa 0,0 mm 0,8 km/h (0 Bft) W 270 -2,0 C 0,0 km/h (0 Bft)
27.01.2016 05:00 0,4 C 0,2 C 83 % 1029,8 hPa 0,0 mm 1,0 km/h (0 Bft) O-SO 112 -2,1 C 2,6 km/h (1 Bft)
27.01.2016 05:05 0,6 C 0,3 C 83 % 1029,8 hPa 0,0 mm 2,1 km/h (1 Bft) NW 315 -1,9 C 6,2 km/h (2 Bft)
27.01.2016 05:10 0,7 C 0,5 C 78 % 1029,8 hPa 0,0 mm 3,1 km/h (1 Bft) S-SO 157 -2,7 C 3,1 km/h (1 Bft)
27.01.2016 05:15 0,9 C 0,6 C 84 % 1029,8 hPa 0,0 mm 2,6 km/h (1 Bft) S-SO 157 -1,5 C 3,9 km/h (1 Bft)
27.01.2016 05:20 1,1 C 0,8 C 84 % 1029,8 hPa 0,0 mm 1,6 km/h (1 Bft) SO 135 -1,3 C 4,7 km/h (1 Bft)
27.01.2016 05:25 0,8 C 0,6 C 83 % 1030,0 hPa 0,0 mm 1,0 km/h (0 Bft) O-NO 67 -1,8 C 0,0 km/h (0 Bft)
27.01.2016 05:30 0,7 C 0,5 C 83 % 1030,0 hPa 0,0 mm 0,5 km/h (0 Bft) O 90 -1,8 C 0,0 km/h (0 Bft)
27.01.2016 05:35 0,7 C 0,4 C 83 % 1030,0 hPa 0,0 mm 0,0 km/h (0 Bft) O-NO 67 -1,8 C 0,0 km/h (0 Bft)
27.01.2016 05:40 0,4 C 0,2 C 83 % 1030,0 hPa 0,0 mm 0,3 km/h (0 Bft) S 180 -2,1 C 0,0 km/h (0 Bft)
27.01.2016 05:45 0,5 C 0,3 C 83 % 1030,3 hPa 0,0 mm 0,3 km/h (0 Bft) O-NO 67 -2,0 C 2,6 km/h (1 Bft)
27.01.2016 05:50 0,6 C 0,5 C 79 % 1030,3 hPa 0,0 mm 1,8 km/h (1 Bft) SW 225 -2,6 C 16,1 km/h (3 Bft)
27.01.2016 05:55 1,0 C 0,9 C 84 % 1030,3 hPa 0,0 mm 3,4 km/h (1 Bft) S 180 -1,4 C 7,3 km/h (2 Bft)
27.01.2016 06:00 1,9 C 2,1 C 79 % 1030,3 hPa 0,0 mm 4,9 km/h (1 Bft) S 180 -1,3 C 4,1 km/h (1 Bft)
27.01.2016 06:05 2,5 C 2,4 C 83 % 1030,3 hPa 0,0 mm 4,7 km/h (1 Bft) S 180 -0,1 C 5,4 km/h (1 Bft)
27.01.2016 06:10 2,0 C 2,3 C 79 % 1030,3 hPa 0,0 mm 3,4 km/h (1 Bft) S 180 -1,2 C 3,4 km/h (1 Bft)
27.01.2016 06:15 2,2 C 2,3 C 77 % 1030,3 hPa 0,0 mm 2,6 km/h (1 Bft) S-SO 157 -1,4 C 3,9 km/h (1 Bft)
27.01.2016 06:20 2,1 C 2,1 C 78 % 1030,3 hPa 0,0 mm 2,6 km/h (1 Bft) S 180 -1,3 C 4,7 km/h (1 Bft)
27.01.2016 06:25 1,9 C 2,0 C 77 % 1030,3 hPa 0,0 mm 2,8 km/h (1 Bft) S 180 -1,7 C 4,9 km/h (1 Bft)
27.01.2016 06:30 2,6 C 2,7 C 77 % 1030,3 hPa 0,0 mm 4,1 km/h (1 Bft) SW 225 -1,0 C 8,3 km/h (2 Bft)
27.01.2016 06:35 3,1 C 3,1 C 76 % 1030,3 hPa 0,0 mm 6,2 km/h (2 Bft) SO 135 -0,7 C 11,1 km/h (2 Bft)
27.01.2016 06:40 2,0 C 3,2 C 76 % 1030,3 hPa 0,0 mm 5,4 km/h (1 Bft) O-SO 112 -1,8 C 0,0 km/h (0 Bft)
27.01.2016 06:45 1,5 C 2,9 C 76 % 1030,4 hPa 0,0 mm 2,6 km/h (1 Bft) O-NO 67 -2,3 C 17,6 km/h (3 Bft)
27.01.2016 06:50 1,1 C 1,9 C 77 % 1030,4 hPa 0,0 mm 1,3 km/h (1 Bft) SO 135 -2,5 C 8,0 km/h (2 Bft)
27.01.2016 06:55 0,9 C 1,8 C 78 % 1030,4 hPa 0,0 mm 1,6 km/h (1 Bft) O-SO 112 -2,5 C 0,0 km/h (0 Bft)
27.01.2016 07:00 0,8 C 1,3 C 79 % 1030,4 hPa 0,0 mm 1,3 km/h (1 Bft) O-NO 67 -2,4 C 0,0 km/h (0 Bft)
27.01.2016 07:05 0,8 C 1,0 C 79 % 1030,7 hPa 0,0 mm 0,3 km/h (0 Bft) O-NO 67 -2,4 C 0,0 km/h (0 Bft)
27.01.2016 07:10 1,7 C 1,6 C 78 % 1030,7 hPa 0,0 mm 2,1 km/h (1 Bft) S-SW 202 -1,7 C 9,3 km/h (2 Bft)
27.01.2016 07:15 2,6 C 2,7 C 80 % 1030,7 hPa 0,0 mm 4,4 km/h (1 Bft) W 270 -0,5 C 9,3 km/h (2 Bft)
27.01.2016 07:20 4,3 C 4,0 C 78 % 1030,7 hPa 0,0 mm 7,0 km/h (2 Bft) SW 225 0,8 C 6,0 km/h (2 Bft)
27.01.2016 07:25 5,1 C 4,8 C 76 % 1030,6 hPa 0,0 mm 7,5 km/h (2 Bft) SW 225 1,2 C 7,8 km/h (2 Bft)
27.01.2016 07:30 5,4 C 5,1 C 70 % 1030,6 hPa 0,0 mm 8,8 km/h (2 Bft) S 180 0,4 C 11,4 km/h (2 Bft)
27.01.2016 07:35 5,2 C 5,0 C 68 % 1030,6 hPa 0,0 mm 9,1 km/h (2 Bft) S-SW 202 -0,2 C 12,4 km/h (3 Bft)
27.01.2016 07:40 5,3 C 5,1 C 68 % 1030,6 hPa 0,0 mm 9,3 km/h (2 Bft) SW 225 -0,1 C 16,1 km/h (3 Bft)
27.01.2016 07:45 5,3 C 5,1 C 67 % 1030,8 hPa 0,0 mm 8,5 km/h (2 Bft) S 180 -0,3 C 8,8 km/h (2 Bft)
27.01.2016 07:50 5,5 C 5,4 C 66 % 1030,8 hPa 0,0 mm 8,3 km/h (2 Bft) SO 135 -0,3 C 12,4 km/h (3 Bft)
27.01.2016 07:55 5,4 C 5,3 C 66 % 1030,8 hPa 0,0 mm 8,5 km/h (2 Bft) W-SW 247 -0,4 C 18,9 km/h (3 Bft)
27.01.2016 08:00 5,2 C 5,2 C 66 % 1030,8 hPa 0,0 mm 7,5 km/h (2 Bft) SW 225 -0,6 C 7,3 km/h (2 Bft)
27.01.2016 08:05 5,2 C 5,1 C 66 % 1030,7 hPa 0,0 mm 7,5 km/h (2 Bft) SW 225 -0,6 C 8,0 km/h (2 Bft)
27.01.2016 08:10 5,2 C 5,1 C 66 % 1030,7 hPa 0,0 mm 8,3 km/h (2 Bft) W-SW 247 -0,6 C 7,5 km/h (2 Bft)
27.01.2016 08:15 5,0 C 4,9 C 66 % 1030,7 hPa 0,0 mm 7,8 km/h (2 Bft) S-SW 202 -0,8 C 4,1 km/h (1 Bft)
27.01.2016 08:20 4,9 C 5,3 C 66 % 1030,7 hPa 0,0 mm 5,2 km/h (1 Bft) SW 225 -0,9 C 8,3 km/h (2 Bft)
27.01.2016 08:25 4,8 C 5,2 C 67 % 1030,6 hPa 0,0 mm 5,4 km/h (1 Bft) SW 225 -0,8 C 9,3 km/h (2 Bft)
27.01.2016 08:30 4,6 C 5,0 C 67 % 1030,6 hPa 0,0 mm 6,2 km/h (2 Bft) S 180 -1,0 C 5,4 km/h (1 Bft)
27.01.2016 08:35 4,4 C 5,3 C 68 % 1030,6 hPa 0,0 mm 4,7 km/h (1 Bft) S 180 -1,0 C 4,7 km/h (1 Bft)
27.01.2016 08:40 4,1 C 5,2 C 69 % 1030,6 hPa 0,0 mm 3,6 km/h (1 Bft) S 180 -1,1 C 7,0 km/h (2 Bft)
27.01.2016 08:45 4,1 C 5,3 C 69 % 1030,8 hPa 0,0 mm 3,9 km/h (1 Bft) S-SW 202 -1,1 C 9,3 km/h (2 Bft)
27.01.2016 08:50 4,5 C 5,4 C 69 % 1030,8 hPa 0,0 mm 6,2 km/h (2 Bft) S 180 -0,7 C 9,8 km/h (2 Bft)
27.01.2016 08:55 4,5 C 5,4 C 69 % 1030,8 hPa 0,0 mm 7,3 km/h (2 Bft) S-SW 202 -0,7 C 7,8 km/h (2 Bft)
27.01.2016 09:00 4,5 C 5,9 C 69 % 1030,8 hPa 0,0 mm 6,5 km/h (2 Bft) S 180 -0,7 C 2,6 km/h (1 Bft)
27.01.2016 09:05 4,1 C 6,2 C 69 % 1030,8 hPa 0,0 mm 3,9 km/h (1 Bft) O-NO 67 -1,1 C 0,0 km/h (0 Bft)
27.01.2016 09:10 4,5 C 5,9 C 70 % 1030,8 hPa 0,0 mm 2,8 km/h (1 Bft) S-SW 202 -0,5 C 10,1 km/h (2 Bft)
27.01.2016 09:15 4,9 C 6,2 C 69 % 1030,8 hPa 0,0 mm 3,6 km/h (1 Bft) W-SW 247 -0,3 C 2,8 km/h (1 Bft)
27.01.2016 09:20 4,1 C 6,0 C 69 % 1030,8 hPa 0,0 mm 2,3 km/h (1 Bft) SO 135 -1,1 C 0,0 km/h (0 Bft)
27.01.2016 09:25 3,9 C 5,7 C 70 % 1030,8 hPa 0,0 mm 1,3 km/h (1 Bft) W-SW 247 -1,1 C 10,6 km/h (2 Bft)
27.01.2016 09:30 4,4 C 5,8 C 70 % 1030,8 hPa 0,0 mm 2,1 km/h (1 Bft) SW 225 -0,6 C 9,3 km/h (2 Bft)
27.01.2016 09:35 4,5 C 5,9 C 70 % 1030,8 hPa 0,0 mm 3,4 km/h (1 Bft) SW 225 -0,5 C 9,1 km/h (2 Bft)
27.01.2016 09:40 3,9 C 5,6 C 70 % 1030,8 hPa 0,0 mm 2,6 km/h (1 Bft) O-SO 112 -1,1 C 0,0 km/h (0 Bft)
27.01.2016 09:45 3,7 C 5,3 C 70 % 1030,8 hPa 0,0 mm 1,0 km/h (0 Bft) SO 135 -1,3 C 0,0 km/h (0 Bft)
27.01.2016 09:50 3,7 C 5,3 C 72 % 1030,8 hPa 0,0 mm 0,3 km/h (0 Bft) S-SO 157 -0,9 C 0,0 km/h (0 Bft)
27.01.2016 09:55 4,0 C 5,4 C 72 % 1030,8 hPa 0,0 mm 0,8 km/h (0 Bft) W-SW 247 -0,6 C 6,0 km/h (2 Bft)
27.01.2016 10:00 4,6 C 5,9 C 72 % 1030,8 hPa 0,0 mm 3,1 km/h (1 Bft) SW 225 -0,0 C 4,9 km/h (1 Bft)
27.01.2016 10:05 4,8 C 6,2 C 71 % 1030,7 hPa 0,0 mm 3,4 km/h (1 Bft) W-SW 247 -0,0 C 8,3 km/h (2 Bft)
27.01.2016 10:10 4,8 C 6,3 C 71 % 1030,7 hPa 0,0 mm 1,8 km/h (1 Bft) N-NW 337 -0,0 C 0,0 km/h (0 Bft)
27.01.2016 10:14 4,8 C 6,3 C 71 % 1030,7 hPa 0,0 mm 1,8 km/h (1 Bft) N-NW 337 -0,0 C 0,0 km/h (0 Bft)
27.01.2016 10:15 4,6 C 6,2 C 71 % 1030,7 hPa 0,0 mm 1,0 km/h (0 Bft) N-NO 22 -0,2 C 0,0 km/h (0 Bft)
27.01.2016 10:20 4,6 C 6,4 C 71 % 1030,7 hPa 0,0 mm 0,0 km/h (0 Bft) O-NO 67 -0,2 C 0,0 km/h (0 Bft)
27.01.2016 10:25 4,6 C 6,6 C 71 % 1030,8 hPa 0,0 mm 0,0 km/h (0 Bft) O-SO 112 -0,2 C 0,0 km/h (0 Bft)
27.01.2016 10:30 4,6 C 6,8 C 71 % 1030,8 hPa 0,0 mm 0,0 km/h (0 Bft) N-NW 337 -0,2 C 0,0 km/h (0 Bft)
27.01.2016 10:35 4,6 C 6,9 C 71 % 1030,8 hPa 0,0 mm 0,0 km/h (0 Bft) O 90 -0,2 C 0,0 km/h (0 Bft)
27.01.2016 10:40 4,8 C 7,2 C 71 % 1030,8 hPa 0,0 mm 0,5 km/h (0 Bft) S-SW 202 -0,0 C 9,6 km/h (2 Bft)
27.01.2016 10:45 5,6 C 7,8 C 71 % 1030,7 hPa 0,0 mm 2,1 km/h (1 Bft) W 270 0,8 C 0,0 km/h (0 Bft)
27.01.2016 10:50 6,3 C 8,4 C 69 % 1030,7 hPa 0,0 mm 3,4 km/h (1 Bft) W 270 1,0 C 4,4 km/h (1 Bft)
27.01.2016 10:55 6,2 C 8,6 C 68 % 1030,7 hPa 0,0 mm 1,6 km/h (1 Bft) NW 315 0,7 C 0,0 km/h (0 Bft)
27.01.2016 11:00 5,7 C 8,3 C 69 % 1030,7 hPa 0,0 mm 0,5 km/h (0 Bft) N-NW 337 0,5 C 0,0 km/h (0 Bft)
27.01.2016 11:05 5,5 C 8,4 C 69 % 1030,5 hPa 0,0 mm 0,0 km/h (0 Bft) O-NO 67 0,3 C 0,0 km/h (0 Bft)
27.01.2016 11:10 5,6 C 8,7 C 69 % 1030,5 hPa 0,0 mm 0,3 km/h (0 Bft) W-SW 247 0,4 C 2,6 km/h (1 Bft)
27.01.2016 11:15 6,2 C 8,9 C 69 % 1030,5 hPa 0,0 mm 1,6 km/h (1 Bft) S 180 0,9 C 3,9 km/h (1 Bft)
27.01.2016 11:20 6,5 C 9,0 C 67 % 1030,5 hPa 0,0 mm 4,4 km/h (1 Bft) W-SW 247 0,8 C 4,9 km/h (1 Bft)
27.01.2016 11:25 6,3 C 9,0 C 66 % 1030,3 hPa 0,0 mm 3,1 km/h (1 Bft) O-SO 112 0,4 C 0,0 km/h (0 Bft)
27.01.2016 11:30 6,3 C 8,7 C 67 % 1030,3 hPa 0,0 mm 2,1 km/h (1 Bft) S-SO 157 0,6 C 0,0 km/h (0 Bft)
27.01.2016 11:35 7,1 C 8,9 C 66 % 1030,3 hPa 0,0 mm 4,1 km/h (1 Bft) W-SW 247 1,2 C 6,7 km/h (2 Bft)
27.01.2016 11:40 7,7 C 9,2 C 64 % 1030,3 hPa 0,0 mm 6,2 km/h (2 Bft) S-SW 202 1,3 C 9,6 km/h (2 Bft)
27.01.2016 11:45 8,0 C 9,5 C 63 % 1030,2 hPa 0,0 mm 5,7 km/h (1 Bft) W-SW 247 1,4 C 10,9 km/h (2 Bft)
27.01.2016 11:50 8,6 C 10,0 C 60 % 1030,2 hPa 0,0 mm 6,5 km/h (2 Bft) SW 225 1,3 C 9,1 km/h (2 Bft)
27.01.2016 11:55 9,0 C 10,1 C 59 % 1030,2 hPa 0,0 mm 7,5 km/h (2 Bft) SW 225 1,4 C 9,8 km/h (2 Bft)
27.01.2016 12:00 9,3 C 10,5 C 58 % 1030,2 hPa 0,0 mm 7,0 km/h (2 Bft) SW 225 1,5 C 5,7 km/h (1 Bft)
27.01.2016 12:05 9,5 C 10,6 C 58 % 1030,1 hPa 0,0 mm 6,7 km/h (2 Bft) S 180 1,7 C 5,2 km/h (1 Bft)
27.01.2016 12:10 9,5 C 11,0 C 58 % 1030,1 hPa 0,0 mm 4,9 km/h (1 Bft) S 180 1,7 C 0,0 km/h (0 Bft)
27.01.2016 12:15 9,5 C 11,4 C 58 % 1030,1 hPa 0,0 mm 3,4 km/h (1 Bft) SW 225 1,7 C 0,0 km/h (0 Bft)
27.01.2016 12:20 9,4 C 11,8 C 58 % 1030,1 hPa 0,0 mm 1,0 km/h (0 Bft) W-SW 247 1,6 C 2,8 km/h (1 Bft)
27.01.2016 12:25 9,2 C 11,9 C 59 % 1030,1 hPa 0,0 mm 1,6 km/h (1 Bft) SW 225 1,6 C 5,2 km/h (1 Bft)
27.01.2016 12:30 9,7 C 12,0 C 58 % 1030,1 hPa 0,0 mm 4,4 km/h (1 Bft) W-SW 247 1,8 C 7,5 km/h (2 Bft)
27.01.2016 12:35 9,9 C 12,0 C 58 % 1030,1 hPa 0,0 mm 6,7 km/h (2 Bft) W-NW 292 2,0 C 15,0 km/h (3 Bft)
27.01.2016 12:40 10,1 C 11,9 C 57 % 1030,1 hPa 0,0 mm 8,8 km/h (2 Bft) W 270 2,0 C 10,6 km/h (2 Bft)
27.01.2016 12:45 10,1 C 11,8 C 57 % 1030,0 hPa 0,0 mm 9,3 km/h (2 Bft) W-NW 292 2,0 C 22,0 km/h (4 Bft)
27.01.2016 12:50 10,3 C 11,9 C 57 % 1030,0 hPa 0,0 mm 9,6 km/h (2 Bft) W-NW 292 2,2 C 9,6 km/h (2 Bft)
27.01.2016 12:55 10,4 C 12,3 C 56 % 1030,0 hPa 0,0 mm 9,1 km/h (2 Bft) W 270 2,0 C 24,6 km/h (4 Bft)
27.01.2016 13:00 10,4 C 12,7 C 56 % 1030,0 hPa 0,0 mm 8,8 km/h (2 Bft) W 270 2,0 C 14,5 km/h (3 Bft)
27.01.2016 13:05 10,5 C 12,6 C 56 % 1029,8 hPa 0,0 mm 9,3 km/h (2 Bft) W-SW 247 2,1 C 6,5 km/h (2 Bft)
27.01.2016 13:10 10,4 C 12,4 C 56 % 1029,8 hPa 0,0 mm 8,8 km/h (2 Bft) W-SW 247 2,0 C 10,1 km/h (2 Bft)
27.01.2016 13:15 10,3 C 12,6 C 56 % 1029,8 hPa 0,0 mm 7,5 km/h (2 Bft) NW 315 1,9 C 17,1 km/h (3 Bft)
27.01.2016 13:20 10,6 C 12,8 C 56 % 1029,8 hPa 0,0 mm 7,8 km/h (2 Bft) W-SW 247 2,2 C 5,2 km/h (1 Bft)
27.01.2016 13:25 10,6 C 13,0 C 56 % 1029,8 hPa 0,0 mm 8,0 km/h (2 Bft) W 270 2,2 C 5,2 km/h (1 Bft)
27.01.2016 13:30 10,4 C 13,2 C 56 % 1029,8 hPa 0,0 mm 6,2 km/h (2 Bft) W 270 2,0 C 6,2 km/h (2 Bft)
27.01.2016 13:35 10,3 C 13,1 C 56 % 1029,8 hPa 0,0 mm 5,7 km/h (1 Bft) W-NW 292 1,9 C 7,5 km/h (2 Bft)
27.01.2016 13:40 10,3 C 13,0 C 56 % 1029,8 hPa 0,0 mm 6,2 km/h (2 Bft) W 270 1,9 C 9,3 km/h (2 Bft)
27.01.2016 13:45 10,4 C 12,9 C 56 % 1029,7 hPa 0,0 mm 6,2 km/h (2 Bft) W 270 2,0 C 3,6 km/h (1 Bft)
27.01.2016 13:50 10,6 C 12,9 C 56 % 1029,7 hPa 0,0 mm 7,3 km/h (2 Bft) S-SW 202 2,2 C 16,6 km/h (3 Bft)
27.01.2016 13:55 10,7 C 13,0 C 55 % 1029,7 hPa 0,0 mm 7,3 km/h (2 Bft) W-SW 247 2,0 C 9,6 km/h (2 Bft)
27.01.2016 14:00 10,8 C 13,5 C 56 % 1029,7 hPa 0,0 mm 6,7 km/h (2 Bft) W-SW 247 2,4 C 10,9 km/h (2 Bft)
27.01.2016 14:05 10,8 C 13,4 C 56 % 1029,6 hPa 0,0 mm 7,3 km/h (2 Bft) SW 225 2,4 C 7,5 km/h (2 Bft)
27.01.2016 14:10 10,9 C 13,4 C 55 % 1029,6 hPa 0,0 mm 8,0 km/h (2 Bft) S-SW 202 2,2 C 14,0 km/h (3 Bft)
27.01.2016 14:15 11,0 C 13,3 C 55 % 1029,6 hPa 0,0 mm 7,8 km/h (2 Bft) W 270 2,3 C 6,7 km/h (2 Bft)
27.01.2016 14:20 10,9 C 13,3 C 55 % 1029,6 hPa 0,0 mm 7,3 km/h (2 Bft) W-SW 247 2,2 C 13,5 km/h (3 Bft)
27.01.2016 14:25 10,9 C 13,2 C 55 % 1029,3 hPa 0,0 mm 6,5 km/h (2 Bft) SW 225 2,2 C 11,1 km/h (2 Bft)
27.01.2016 14:30 10,9 C 13,1 C 55 % 1029,3 hPa 0,0 mm 6,5 km/h (2 Bft) W-SW 247 2,2 C 6,7 km/h (2 Bft)
27.01.2016 14:35 10,9 C 13,1 C 55 % 1029,3 hPa 0,0 mm 6,2 km/h (2 Bft) W-SW 247 2,2 C 3,9 km/h (1 Bft)
27.01.2016 14:40 10,9 C 13,3 C 55 % 1029,3 hPa 0,0 mm 6,2 km/h (2 Bft) W-SW 247 2,2 C 4,9 km/h (1 Bft)
27.01.2016 14:45 10,8 C 13,2 C 55 % 1029,4 hPa 0,0 mm 6,0 km/h (2 Bft) W-NW 292 2,1 C 6,2 km/h (2 Bft)
27.01.2016 14:50 10,9 C 13,2 C 55 % 1029,4 hPa 0,0 mm 4,9 km/h (1 Bft) SW 225 2,2 C 4,1 km/h (1 Bft)
27.01.2016 14:55 10,9 C 13,2 C 55 % 1029,4 hPa 0,0 mm 5,2 km/h (1 Bft) SW 225 2,2 C 9,6 km/h (2 Bft)
27.01.2016 15:00 10,9 C 13,2 C 54 % 1029,4 hPa 0,0 mm 5,2 km/h (1 Bft) W 270 2,0 C 4,1 km/h (1 Bft)
27.01.2016 15:05 10,8 C 13,1 C 54 % 1029,3 hPa 0,0 mm 5,4 km/h (1 Bft) W-SW 247 1,9 C 7,0 km/h (2 Bft)
27.01.2016 15:10 10,9 C 13,0 C 54 % 1029,3 hPa 0,0 mm 4,7 km/h (1 Bft) W 270 2,0 C 6,0 km/h (2 Bft)
27.01.2016 15:15 10,9 C 12,8 C 54 % 1029,3 hPa 0,0 mm 4,7 km/h (1 Bft) SW 225 2,0 C 7,3 km/h (2 Bft)
27.01.2016 15:20 11,0 C 13,0 C 54 % 1029,3 hPa 0,0 mm 4,7 km/h (1 Bft) SW 225 2,1 C 7,3 km/h (2 Bft)
27.01.2016 15:25 11,0 C 13,0 C 54 % 1029,1 hPa 0,0 mm 4,7 km/h (1 Bft) W-SW 247 2,1 C 8,3 km/h (2 Bft)
27.01.2016 15:30 10,9 C 12,8 C 54 % 1029,1 hPa 0,0 mm 5,2 km/h (1 Bft) W 270 2,0 C 9,8 km/h (2 Bft)
27.01.2016 15:35 10,9 C 12,6 C 54 % 1029,1 hPa 0,0 mm 4,9 km/h (1 Bft) O-NO 67 2,0 C 5,7 km/h (1 Bft)
27.01.2016 15:40 10,9 C 12,4 C 53 % 1029,1 hPa 0,0 mm 5,4 km/h (1 Bft) SW 225 1,7 C 0,0 km/h (0 Bft)
27.01.2016 15:45 10,8 C 12,3 C 54 % 1029,0 hPa 0,0 mm 5,4 km/h (1 Bft) W-SW 247 1,9 C 5,4 km/h (1 Bft)
27.01.2016 15:50 10,8 C 12,1 C 54 % 1029,0 hPa 0,0 mm 5,2 km/h (1 Bft) S 180 1,9 C 6,5 km/h (2 Bft)
27.01.2016 15:55 10,8 C 12,0 C 54 % 1029,0 hPa 0,0 mm 5,4 km/h (1 Bft) W-SW 247 1,9 C 6,7 km/h (2 Bft)
27.01.2016 16:00 10,7 C 11,8 C 54 % 1029,0 hPa 0,0 mm 5,7 km/h (1 Bft) W-SW 247 1,8 C 6,2 km/h (2 Bft)
27.01.2016 16:05 10,6 C 11,6 C 54 % 1028,8 hPa 0,0 mm 6,2 km/h (2 Bft) W-SW 247 1,7 C 8,0 km/h (2 Bft)
27.01.2016 16:10 10,6 C 11,5 C 54 % 1028,8 hPa 0,0 mm 6,5 km/h (2 Bft) S-SW 202 1,7 C 7,0 km/h (2 Bft)
27.01.2016 16:14 10,4 C 11,4 C 54 % 1028,8 hPa 0,0 mm 6,5 km/h (2 Bft) S 180 1,5 C 6,2 km/h (2 Bft)
27.01.2016 16:15 10,4 C 11,4 C 54 % 1028,8 hPa 0,0 mm 6,5 km/h (2 Bft) S 180 1,5 C 6,2 km/h (2 Bft)
27.01.2016 16:20 10,3 C 11,3 C 54 % 1028,8 hPa 0,0 mm 4,9 km/h (1 Bft) S-SW 202 1,4 C 5,4 km/h (1 Bft)
27.01.2016 16:25 10,1 C 11,2 C 54 % 1028,7 hPa 0,0 mm 3,4 km/h (1 Bft) W-SW 247 1,2 C 3,9 km/h (1 Bft)
27.01.2016 16:30 9,8 C 10,9 C 55 % 1028,7 hPa 0,0 mm 2,3 km/h (1 Bft) S-SW 202 1,2 C 0,0 km/h (0 Bft)
27.01.2016 16:35 9,7 C 10,5 C 55 % 1028,7 hPa 0,0 mm 1,3 km/h (1 Bft) W-SW 247 1,1 C 0,0 km/h (0 Bft)
27.01.2016 16:40 9,7 C 10,2 C 55 % 1028,7 hPa 0,0 mm 0,5 km/h (0 Bft) S 180 1,1 C 0,0 km/h (0 Bft)
27.01.2016 16:45 9,6 C 10,0 C 55 % 1028,5 hPa 0,0 mm 0,3 km/h (0 Bft) S 180 1,0 C 0,0 km/h (0 Bft)
27.01.2016 16:50 9,5 C 9,7 C 55 % 1028,5 hPa 0,0 mm 0,5 km/h (0 Bft) S 180 0,9 C 0,0 km/h (0 Bft)
27.01.2016 16:55 9,5 C 9,5 C 55 % 1028,5 hPa 0,0 mm 0,8 km/h (0 Bft) S 180 0,9 C 0,0 km/h (0 Bft)
27.01.2016 17:00 9,3 C 9,4 C 55 % 1028,5 hPa 0,0 mm 1,0 km/h (0 Bft) S-SW 202 0,7 C 3,1 km/h (1 Bft)
27.01.2016 17:05 9,1 C 9,3 C 56 % 1028,3 hPa 0,0 mm 0,8 km/h (0 Bft) S 180 0,8 C 0,0 km/h (0 Bft)
27.01.2016 17:10 9,1 C 9,2 C 56 % 1028,3 hPa 0,0 mm 0,5 km/h (0 Bft) S 180 0,8 C 0,0 km/h (0 Bft)
27.01.2016 17:15 9,1 C 9,1 C 56 % 1028,3 hPa 0,0 mm 0,5 km/h (0 Bft) S 180 0,8 C 0,0 km/h (0 Bft)
27.01.2016 17:20 7,8 C 8,7 C 56 % 1028,3 hPa 0,0 mm 0,0 km/h (0 Bft) S-SO 157 -0,4 C 0,0 km/h (0 Bft)
27.01.2016 17:25 6,8 C 8,1 C 57 % 1028,2 hPa 0,0 mm 0,0 km/h (0 Bft) S-SO 157 -1,1 C 0,0 km/h (0 Bft)
27.01.2016 17:30 7,0 C 7,2 C 59 % 1028,2 hPa 0,0 mm 0,0 km/h (0 Bft) S-SO 157 -0,5 C 0,0 km/h (0 Bft)
27.01.2016 17:35 6,5 C 6,8 C 59 % 1028,2 hPa 0,0 mm 0,0 km/h (0 Bft) W 270 -0,9 C 0,0 km/h (0 Bft)
27.01.2016 17:40 7,0 C 6,8 C 60 % 1028,2 hPa 0,0 mm 0,0 km/h (0 Bft) S-SO 157 -0,2 C 0,0 km/h (0 Bft)
27.01.2016 17:45 7,4 C 7,2 C 60 % 1027,9 hPa 0,0 mm 0,0 km/h (0 Bft) S-SO 157 0,2 C 0,0 km/h (0 Bft)
27.01.2016 17:50 6,0 C 6,4 C 60 % 1027,9 hPa 0,0 mm 0,3 km/h (0 Bft) SO 135 -1,2 C 0,0 km/h (0 Bft)
27.01.2016 17:55 5,6 C 6,1 C 61 % 1027,9 hPa 0,0 mm 0,0 km/h (0 Bft) SO 135 -1,3 C 0,0 km/h (0 Bft)
27.01.2016 18:00 5,6 C 5,7 C 64 % 1027,9 hPa 0,0 mm 0,0 km/h (0 Bft) SO 135 -0,7 C 0,0 km/h (0 Bft)
27.01.2016 18:05 5,8 C 5,8 C 65 % 1028,0 hPa 0,0 mm 0,0 km/h (0 Bft) SO 135 -0,3 C 0,0 km/h (0 Bft)
27.01.2016 18:10 5,7 C 5,7 C 65 % 1028,0 hPa 0,0 mm 0,3 km/h (0 Bft) SW 225 -0,4 C 0,0 km/h (0 Bft)
27.01.2016 18:15 5,5 C 5,7 C 65 % 1028,0 hPa 0,0 mm 0,3 km/h (0 Bft) SW 225 -0,5 C 0,0 km/h (0 Bft)
27.01.2016 18:20 5,3 C 5,7 C 66 % 1028,0 hPa 0,0 mm 0,0 km/h (0 Bft) SW 225 -0,5 C 0,0 km/h (0 Bft)
27.01.2016 18:25 5,4 C 5,6 C 66 % 1027,9 hPa 0,0 mm 0,0 km/h (0 Bft) SW 225 -0,4 C 0,0 km/h (0 Bft)
27.01.2016 18:30 5,0 C 5,6 C 67 % 1027,9 hPa 0,0 mm 0,0 km/h (0 Bft) N-NO 22 -0,6 C 0,0 km/h (0 Bft)
27.01.2016 18:35 5,3 C 5,5 C 67 % 1027,9 hPa 0,0 mm 0,0 km/h (0 Bft) N-NO 22 -0,3 C 0,0 km/h (0 Bft)
27.01.2016 18:40 5,0 C 5,4 C 68 % 1027,9 hPa 0,0 mm 0,3 km/h (0 Bft) NW 315 -0,4 C 0,0 km/h (0 Bft)
27.01.2016 18:45 5,1 C 5,3 C 68 % 1027,8 hPa 0,0 mm 0,3 km/h (0 Bft) N-NW 337 -0,3 C 0,0 km/h (0 Bft)
27.01.2016 18:50 4,9 C 5,1 C 68 % 1027,8 hPa 0,0 mm 0,0 km/h (0 Bft) N-NO 22 -0,5 C 0,0 km/h (0 Bft)
27.01.2016 18:55 5,0 C 5,0 C 68 % 1027,8 hPa 0,0 mm 0,0 km/h (0 Bft) N-NO 22 -0,4 C 0,0 km/h (0 Bft)
27.01.2016 19:00 4,5 C 4,9 C 68 % 1027,8 hPa 0,0 mm 0,0 km/h (0 Bft) NW 315 -0,9 C 0,0 km/h (0 Bft)
27.01.2016 19:05 4,3 C 4,6 C 69 % 1027,9 hPa 0,0 mm 0,0 km/h (0 Bft) NW 315 -0,9 C 0,0 km/h (0 Bft)
27.01.2016 19:10 4,1 C 4,2 C 69 % 1027,9 hPa 0,0 mm 0,0 km/h (0 Bft) N-NW 337 -1,1 C 0,0 km/h (0 Bft)
27.01.2016 19:15 4,0 C 4,0 C 70 % 1027,9 hPa 0,0 mm 0,0 km/h (0 Bft) N-NW 337 -1,0 C 0,0 km/h (0 Bft)
27.01.2016 19:20 4,1 C 3,9 C 72 % 1027,9 hPa 0,0 mm 0,0 km/h (0 Bft) NO 45 -0,5 C 0,0 km/h (0 Bft)
27.01.2016 19:25 3,8 C 3,7 C 72 % 1027,8 hPa 0,0 mm 0,0 km/h (0 Bft) NO 45 -0,8 C 0,0 km/h (0 Bft)
27.01.2016 19:30 3,6 C 3,5 C 72 % 1027,8 hPa 0,0 mm 0,0 km/h (0 Bft) NO 45 -1,0 C 0,0 km/h (0 Bft)
27.01.2016 19:35 3,5 C 3,4 C 72 % 1027,8 hPa 0,0 mm 0,0 km/h (0 Bft) NO 45 -1,1 C 0,0 km/h (0 Bft)
27.01.2016 19:40 3,5 C 3,4 C 72 % 1027,8 hPa 0,0 mm 0,0 km/h (0 Bft) NO 45 -1,1 C 0,0 km/h (0 Bft)
27.01.2016 19:45 3,4 C 3,2 C 72 % 1027,9 hPa 0,0 mm 0,0 km/h (0 Bft) NO 45 -1,2 C 0,0 km/h (0 Bft)
27.01.2016 19:50 3,2 C 3,1 C 73 % 1027,9 hPa 0,0 mm 0,0 km/h (0 Bft) NO 45 -1,2 C 0,0 km/h (0 Bft)
27.01.2016 19:55 3,4 C 3,2 C 74 % 1027,9 hPa 0,0 mm 0,0 km/h (0 Bft) NO 45 -0,8 C 0,0 km/h (0 Bft)
27.01.2016 20:00 3,7 C 3,4 C 75 % 1027,9 hPa 0,0 mm 0,0 km/h (0 Bft) SO 135 -0,3 C 0,0 km/h (0 Bft)
27.01.2016 20:05 3,5 C 3,4 C 74 % 1027,8 hPa 0,0 mm 0,0 km/h (0 Bft) N-NO 22 -0,7 C 0,0 km/h (0 Bft)
27.01.2016 20:10 3,5 C 3,4 C 75 % 1027,8 hPa 0,0 mm 0,0 km/h (0 Bft) NO 45 -0,5 C 0,0 km/h (0 Bft)
27.01.2016 20:15 3,5 C 3,4 C 75 % 1027,8 hPa 0,0 mm 0,0 km/h (0 Bft) O 90 -0,5 C 0,0 km/h (0 Bft)
27.01.2016 20:20 3,6 C 3,7 C 75 % 1027,8 hPa 0,0 mm 0,3 km/h (0 Bft) O-NO 67 -0,4 C 0,0 km/h (0 Bft)
27.01.2016 20:25 3,5 C 3,7 C 75 % 1027,8 hPa 0,0 mm 0,3 km/h (0 Bft) SO 135 -0,5 C 0,0 km/h (0 Bft)
27.01.2016 20:30 4,4 C 4,5 C 72 % 1027,8 hPa 0,0 mm 0,5 km/h (0 Bft) S-SO 157 -0,2 C 3,9 km/h (1 Bft)
27.01.2016 20:35 5,0 C 4,9 C 71 % 1027,8 hPa 0,0 mm 1,3 km/h (1 Bft) N-NW 337 0,2 C 0,0 km/h (0 Bft)
27.01.2016 20:40 4,8 C 4,8 C 71 % 1027,8 hPa 0,0 mm 1,0 km/h (0 Bft) S-SO 157 -0,0 C 0,0 km/h (0 Bft)
27.01.2016 20:45 4,4 C 4,6 C 71 % 1027,8 hPa 0,0 mm 0,5 km/h (0 Bft) SO 135 -0,4 C 3,6 km/h (1 Bft)
27.01.2016 20:50 4,4 C 4,7 C 71 % 1027,8 hPa 0,0 mm 0,8 km/h (0 Bft) O-SO 112 -0,4 C 2,8 km/h (1 Bft)
27.01.2016 20:55 4,5 C 4,7 C 70 % 1027,8 hPa 0,0 mm 1,0 km/h (0 Bft) S 180 -0,5 C 4,1 km/h (1 Bft)
27.01.2016 21:00 5,2 C 5,4 C 69 % 1027,8 hPa 0,0 mm 2,8 km/h (1 Bft) S 180 -0,0 C 6,0 km/h (2 Bft)
27.01.2016 21:05 5,4 C 5,6 C 68 % 1027,8 hPa 0,0 mm 4,1 km/h (1 Bft) S-SO 157 -0,0 C 6,2 km/h (2 Bft)
27.01.2016 21:10 5,5 C 5,9 C 67 % 1027,8 hPa 0,0 mm 4,1 km/h (1 Bft) S 180 -0,1 C 4,4 km/h (1 Bft)
27.01.2016 21:15 5,3 C 5,9 C 67 % 1027,8 hPa 0,0 mm 3,1 km/h (1 Bft) O-SO 112 -0,3 C 0,0 km/h (0 Bft)
27.01.2016 21:20 4,6 C 5,2 C 68 % 1027,8 hPa 0,0 mm 1,3 km/h (1 Bft) NO 45 -0,8 C 0,0 km/h (0 Bft)
27.01.2016 21:25 4,2 C 4,8 C 68 % 1027,9 hPa 0,0 mm 0,8 km/h (0 Bft) NO 45 -1,2 C 0,0 km/h (0 Bft)
27.01.2016 21:30 4,1 C 4,2 C 69 % 1027,9 hPa 0,0 mm 0,0 km/h (0 Bft) O-SO 112 -1,1 C 0,0 km/h (0 Bft)
27.01.2016 21:35 3,9 C 4,0 C 69 % 1027,9 hPa 0,0 mm 0,0 km/h (0 Bft) NO 45 -1,3 C 0,0 km/h (0 Bft)
27.01.2016 21:40 3,6 C 3,8 C 70 % 1027,9 hPa 0,0 mm 0,0 km/h (0 Bft) NO 45 -1,3 C 0,0 km/h (0 Bft)
27.01.2016 21:45 3,9 C 3,8 C 71 % 1027,8 hPa 0,0 mm 0,3 km/h (0 Bft) S-SO 157 -0,9 C 3,4 km/h (1 Bft)
27.01.2016 21:50 3,7 C 3,7 C 71 % 1027,8 hPa 0,0 mm 0,3 km/h (0 Bft) O-NO 67 -1,1 C 0,0 km/h (0 Bft)
27.01.2016 21:55 3,4 C 3,5 C 71 % 1027,8 hPa 0,0 mm 0,0 km/h (0 Bft) O-NO 67 -1,3 C 0,0 km/h (0 Bft)
27.01.2016 22:00 3,5 C 3,4 C 71 % 1027,8 hPa 0,0 mm 0,0 km/h (0 Bft) SO 135 -1,3 C 0,0 km/h (0 Bft)
27.01.2016 22:05 3,7 C 3,6 C 72 % 1027,8 hPa 0,0 mm 0,5 km/h (0 Bft) SO 135 -0,9 C 3,4 km/h (1 Bft)
27.01.2016 22:10 3,8 C 3,9 C 70 % 1027,8 hPa 0,0 mm 0,8 km/h (0 Bft) N 360 -1,2 C 0,0 km/h (0 Bft)
27.01.2016 22:14 3,7 C 3,8 C 72 % 1027,8 hPa 0,0 mm 0,3 km/h (0 Bft) SO 135 -0,9 C 0,0 km/h (0 Bft)
27.01.2016 22:16 3,7 C 3,8 C 72 % 1027,8 hPa 0,0 mm 0,3 km/h (0 Bft) SO 135 -0,9 C 0,0 km/h (0 Bft)
27.01.2016 22:20 4,2 C 4,3 C 70 % 1027,8 hPa 0,0 mm 0,8 km/h (0 Bft) SO 135 -0,8 C 5,4 km/h (1 Bft)
27.01.2016 22:25 4,7 C 4,8 C 69 % 1027,7 hPa 0,0 mm 1,6 km/h (1 Bft) O-SO 112 -0,5 C 3,6 km/h (1 Bft)
27.01.2016 22:30 4,9 C 5,1 C 68 % 1027,7 hPa 0,0 mm 1,8 km/h (1 Bft) S 180 -0,5 C 0,0 km/h (0 Bft)
27.01.2016 22:35 5,5 C 5,4 C 66 % 1027,7 hPa 0,0 mm 1,0 km/h (0 Bft) SO 135 -0,3 C 0,0 km/h (0 Bft)
27.01.2016 22:40 5,5 C 5,4 C 66 % 1027,7 hPa 0,0 mm 0,8 km/h (0 Bft) SO 135 -0,3 C 0,0 km/h (0 Bft)
27.01.2016 22:45 5,6 C 5,6 C 65 % 1027,5 hPa 0,0 mm 0,8 km/h (0 Bft) S-SO 157 -0,4 C 3,4 km/h (1 Bft)
27.01.2016 22:50 6,1 C 6,0 C 62 % 1027,5 hPa 0,0 mm 1,6 km/h (1 Bft) S-SO 157 -0,6 C 0,0 km/h (0 Bft)
27.01.2016 22:55 6,2 C 6,1 C 61 % 1027,5 hPa 0,0 mm 2,3 km/h (1 Bft) O-SO 112 -0,7 C 7,0 km/h (2 Bft)
27.01.2016 23:00 6,2 C 6,1 C 60 % 1027,5 hPa 0,0 mm 2,3 km/h (1 Bft) S 180 -1,0 C 0,0 km/h (0 Bft)
27.01.2016 23:05 6,3 C 6,2 C 60 % 1027,4 hPa 0,0 mm 1,8 km/h (1 Bft) SO 135 -0,9 C 0,0 km/h (0 Bft)
27.01.2016 23:10 6,4 C 6,3 C 59 % 1027,4 hPa 0,0 mm 0,3 km/h (0 Bft) SO 135 -1,0 C 0,0 km/h (0 Bft)
27.01.2016 23:15 5,9 C 6,0 C 60 % 1027,4 hPa 0,0 mm 0,0 km/h (0 Bft) S 180 -1,3 C 0,0 km/h (0 Bft)
27.01.2016 23:20 5,1 C 5,9 C 61 % 1027,4 hPa 0,0 mm 0,0 km/h (0 Bft) O-SO 112 -1,8 C 0,0 km/h (0 Bft)
27.01.2016 23:25 4,9 C 5,6 C 62 % 1027,2 hPa 0,0 mm 0,0 km/h (0 Bft) O-NO 67 -1,8 C 0,0 km/h (0 Bft)
27.01.2016 23:30 4,5 C 5,3 C 63 % 1027,2 hPa 0,0 mm 0,0 km/h (0 Bft) SO 135 -1,9 C 0,0 km/h (0 Bft)
27.01.2016 23:35 4,7 C 5,2 C 64 % 1027,2 hPa 0,0 mm 0,0 km/h (0 Bft) SO 135 -1,5 C 0,0 km/h (0 Bft)
27.01.2016 23:40 5,0 C 5,6 C 64 % 1027,2 hPa 0,0 mm 0,0 km/h (0 Bft) S 180 -1,2 C 0,0 km/h (0 Bft)
27.01.2016 23:45 4,9 C 5,7 C 64 % 1027,2 hPa 0,0 mm 0,0 km/h (0 Bft) W-NW 292 -1,3 C 0,0 km/h (0 Bft)
27.01.2016 23:50 4,6 C 5,5 C 64 % 1027,2 hPa 0,0 mm 0,5 km/h (0 Bft) N-NW 337 -1,6 C 0,0 km/h (0 Bft)
27.01.2016 23:55 4,5 C 5,2 C 64 % 1027,2 hPa 0,0 mm 0,5 km/h (0 Bft) N-NW 337 -1,7 C 0,0 km/h (0 Bft)
_ Min-Zeit 02:25 02:25 15:40 23:55 - 23:45 - - 01:50 23:55
Minimum _ -0,4 C -0,7 C 53 % 1027,2 hPa - 0,0 km/h (0 Bft) - - -3,3 C 0,0 km/h (0 Bft)
_ Max-Zeit 15:25 14:00 04:20 00:20 23:55 12:50 - - 14:05 12:55
Maximum _ 11,0 C 13,5 C 86 % 1031,2 hPa 0,0 mm 9,6 km/h
W-NW (2 Bft)
- - 2,4 C 24,6 km/h
W (4 Bft)
Durchschnitt _ 4,9 C 5,5 C 69 % 1029,5 hPa #0,0 mm 2,4 km/h (1 Bft) W-SW - -0,5 C 3,4 km/h (1 Bft)